Location: Chimay
(50.0486°N, 4.3171°E)
Time: 21:53:57
(UTC+00:00)

Cosmos 2360 Rocket - Pass Details

Date: 08 August 2020
Orbit: 833 x 845 km, 71.0° (Epoch: 22 September)

Event Time Altitude Azimuth Distance (km) Brightness Sun altitude
Rises 22:10:36 0° 332° (NNW) 3,417 6.9 -20.7°
Reaches altitude 10° 22:13:06 10° 335° (NNW) 2,478 5.8 -20.9°
Maximum altitude 22:18:45 63° 57° (ENE) 942 2.4 -21.3°
Enters shadow 22:20:49 38° 122° (ESE) 1,263 2.7 -21.4°
